TimeCST,TemperatureF,Dew PointF,Humidity,Sea Level PressureIn,VisibilityMPH,Wind Direction,Wind SpeedMPH,Gust SpeedMPH,PrecipitationIn,Events,Conditions,WindDirDegrees,DateUTC
12:15 AM,29.8,25.7,85,30.11,10.0,SE,5.8,-,N/A,,Overcast,130,2012-12-28 06:15:00
12:35 AM,29.8,26.1,86,30.11,10.0,ESE,4.6,-,N/A,,Overcast,110,2012-12-28 06:35:00
12:55 AM,29.8,25.9,85,30.11,10.0,East,3.5,-,N/A,,Overcast,90,2012-12-28 06:55:00
1:15 AM,29.8,26.2,86,30.10,10.0,East,4.6,-,N/A,,Overcast,90,2012-12-28 07:15:00
1:35 AM,29.8,26.2,86,30.11,10.0,ESE,4.6,-,N/A,,Overcast,120,2012-12-28 07:35:00
1:55 AM,29.8,26.4,87,30.11,10.0,ESE,5.8,-,N/A,,Mostly Cloudy,120,2012-12-28 07:55:00
2:15 AM,29.8,26.4,87,30.11,10.0,ESE,6.9,-,N/A,,Overcast,110,2012-12-28 08:15:00
2:35 AM,30.0,26.6,87,30.09,10.0,ESE,8.1,-,N/A,,Overcast,110,2012-12-28 08:35:00
2:55 AM,30.0,26.6,87,30.10,10.0,ESE,5.8,-,N/A,,Overcast,110,2012-12-28 08:55:00
3:15 AM,29.8,27.0,89,30.09,10.0,ESE,8.1,-,N/A,,Overcast,110,2012-12-28 09:15:00
3:35 AM,29.8,26.6,88,30.07,10.0,East,5.8,-,N/A,,Overcast,100,2012-12-28 09:35:00
3:55 AM,29.8,27.0,89,30.08,10.0,SE,5.8,-,N/A,,Overcast,130,2012-12-28 09:55:00
4:15 AM,29.8,26.8,88,30.07,10.0,ESE,4.6,-,N/A,,Overcast,120,2012-12-28 10:15:00
4:35 AM,29.8,27.0,89,30.07,10.0,ESE,4.6,-,N/A,,Mostly Cloudy,110,2012-12-28 10:35:00
4:55 AM,29.7,26.8,89,30.09,10.0,Calm,Calm,-,N/A,,Overcast,0,2012-12-28 10:55:00
5:15 AM,29.7,27.0,90,30.09,10.0,Calm,Calm,-,N/A,,Mostly Cloudy,0,2012-12-28 11:15:00
5:35 AM,30.0,27.3,90,30.08,10.0,ESE,4.6,-,N/A,,Mostly Cloudy,110,2012-12-28 11:35:00
5:55 AM,29.8,27.5,91,30.08,10.0,ESE,6.9,-,N/A,,Overcast,120,2012-12-28 11:55:00
6:15 AM,29.8,27.5,91,30.09,10.0,SE,6.9,-,N/A,,Overcast,130,2012-12-28 12:15:00
6:35 AM,30.0,27.5,90,30.08,7.0,SE,6.9,-,N/A,,Overcast,130,2012-12-28 12:35:00
6:55 AM,30.2,27.7,90,30.09,7.0,SE,5.8,-,N/A,,Overcast,140,2012-12-28 12:55:00
7:35 AM,30.4,28.0,91,30.09,5.0,SE,4.6,-,N/A,,Overcast,140,2012-12-28 13:35:00
7:55 AM,30.7,28.2,90,30.09,5.0,SE,4.6,-,N/A,,Overcast,130,2012-12-28 13:55:00
8:15 AM,30.9,28.4,90,30.08,5.0,SE,5.8,-,N/A,,Overcast,130,2012-12-28 14:15:00
8:35 AM,31.1,28.4,90,30.08,7.0,SE,6.9,-,N/A,,Overcast,140,2012-12-28 14:35:00
8:55 AM,32.0,28.4,87,30.09,7.0,SE,6.9,-,N/A,,Mostly Cloudy,140,2012-12-28 14:55:00
9:15 AM,32.2,28.6,87,30.07,7.0,SE,9.2,-,N/A,,Mostly Cloudy,130,2012-12-28 15:15:00
9:35 AM,32.4,28.8,87,30.07,7.0,ESE,8.1,-,N/A,,Mostly Cloudy,120,2012-12-28 15:35:00
9:55 AM,32.9,29.1,86,30.06,10.0,ESE,11.5,-,N/A,,Scattered Clouds,110,2012-12-28 15:55:00
10:15 AM,33.3,29.1,85,30.05,7.0,ESE,10.4,-,N/A,,Clear,120,2012-12-28 16:15:00
10:35 AM,32.5,28.9,87,30.04,7.0,ESE,9.2,-,N/A,,Mostly Cloudy,110,2012-12-28 16:35:00
10:55 AM,32.7,28.9,86,30.03,7.0,SE,8.1,-,N/A,,Scattered Clouds,130,2012-12-28 16:55:00
11:15 AM,33.1,29.3,86,30.03,10.0,SE,6.9,-,N/A,,Mostly Cloudy,140,2012-12-28 17:15:00
11:35 AM,33.4,29.3,85,30.02,10.0,SE,5.8,-,N/A,,Overcast,130,2012-12-28 17:35:00
11:55 AM,33.4,28.9,84,30.01,10.0,SSE,5.8,-,N/A,,Overcast,160,2012-12-28 17:55:00
12:15 PM,33.8,29.3,84,29.99,10.0,SSE,8.1,-,N/A,,Overcast,150,2012-12-28 18:15:00
12:35 PM,33.8,29.3,84,29.96,10.0,SE,9.2,-,N/A,,Overcast,140,2012-12-28 18:35:00
12:55 PM,34.2,29.8,84,29.94,10.0,SE,8.1,-,N/A,,Mostly Cloudy,130,2012-12-28 18:55:00
1:15 PM,33.8,29.8,85,29.95,10.0,ESE,8.1,-,N/A,,Scattered Clouds,120,2012-12-28 19:15:00
1:35 PM,33.8,29.3,84,29.95,10.0,SE,8.1,-,N/A,,Mostly Cloudy,130,2012-12-28 19:35:00
1:55 PM,33.8,29.8,85,29.94,10.0,ESE,6.9,-,N/A,,Overcast,110,2012-12-28 19:55:00
2:15 PM,34.0,29.7,84,29.94,10.0,ESE,4.6,-,N/A,,Overcast,110,2012-12-28 20:15:00
2:35 PM,33.8,30.0,86,29.94,7.0,East,5.8,-,N/A,,Overcast,100,2012-12-28 20:35:00
2:55 PM,33.8,29.7,85,29.93,10.0,ESE,8.1,-,N/A,,Overcast,110,2012-12-28 20:55:00
3:15 PM,33.8,29.5,84,29.94,10.0,SE,6.9,-,N/A,,Scattered Clouds,130,2012-12-28 21:15:00
3:35 PM,33.8,29.8,85,29.93,10.0,ESE,4.6,-,N/A,,Scattered Clouds,110,2012-12-28 21:35:00
3:55 PM,33.8,29.8,85,29.93,7.0,East,6.9,-,N/A,,Scattered Clouds,100,2012-12-28 21:55:00
4:15 PM,33.4,29.5,85,29.92,10.0,East,4.6,-,N/A,,Mostly Cloudy,100,2012-12-28 22:15:00
4:35 PM,33.4,29.5,85,29.92,10.0,ENE,3.5,-,N/A,,Overcast,70,2012-12-28 22:35:00
4:55 PM,33.4,29.3,85,29.91,10.0,East,4.6,-,N/A,,Overcast,80,2012-12-28 22:55:00
5:15 PM,33.4,29.3,85,29.91,10.0,ENE,4.6,-,N/A,,Overcast,70,2012-12-28 23:15:00
5:35 PM,33.4,29.8,87,29.91,10.0,NE,3.5,-,N/A,Rain,Light Rain,50,2012-12-28 23:35:00
5:55 PM,33.4,30.4,89,29.91,5.0,ENE,4.6,-,N/A,Rain,Light Rain,70,2012-12-28 23:55:00
6:15 PM,32.4,30.7,94,29.90,1.8,ENE,3.5,-,N/A,Snow,Light Snow,70,2012-12-29 00:15:00
6:35 PM,32.0,32.0,100,29.90,1.0,ENE,3.5,-,N/A,Snow,Snow,60,2012-12-29 00:35:00
6:55 PM,32.0,31.6,99,29.90,0.8,Calm,Calm,-,0.03,Snow,Snow,0,2012-12-29 00:55:00
7:15 PM,31.8,31.6,99,29.89,0.8,Calm,Calm,-,0.03,Snow,Snow,0,2012-12-29 01:15:00
7:35 PM,31.6,31.6,100,29.89,0.8,Calm,Calm,-,0.05,Snow,Snow,0,2012-12-29 01:35:00
7:55 PM,31.6,31.6,100,29.89,1.0,Calm,Calm,-,0.07,Snow,Snow,0,2012-12-29 01:55:00
8:15 PM,31.6,31.6,100,29.88,1.0,Calm,Calm,-,0.01,Snow,Light Snow,0,2012-12-29 02:15:00
8:55 PM,31.1,31.1,100,29.88,1.2,Calm,Calm,-,0.05,Snow,Light Snow,0,2012-12-29 02:55:00
9:15 PM,31.1,31.1,100,29.89,1.2,Calm,Calm,-,0.01,Snow,Light Snow,0,2012-12-29 03:15:00
9:35 PM,31.1,31.1,100,29.87,0.8,Calm,Calm,-,0.02,Snow,Snow,0,2012-12-29 03:35:00
9:55 PM,31.1,31.1,100,29.87,1.0,NNW,3.5,-,0.03,Snow,Light Snow,330,2012-12-29 03:55:00
10:15 PM,31.1,31.1,100,29.87,-9999.0,NNW,3.5,-,N/A,,Unknown,330,2012-12-29 04:15:00
10:35 PM,31.1,31.1,100,29.87,1.0,NW,3.5,-,N/A,Snow,Snow,320,2012-12-29 04:35:00
10:55 PM,31.1,31.1,100,29.87,1.0,NNW,3.5,-,0.01,Snow,Light Snow,340,2012-12-29 04:55:00
11:15 PM,31.1,31.1,100,29.86,1.2,NNW,3.5,-,0.01,Snow,Light Snow,340,2012-12-29 05:15:00
11:35 PM,31.1,31.1,100,29.86,1.5,NNW,3.5,-,0.02,Snow,Light Snow,330,2012-12-29 05:35:00
11:55 PM,31.1,31.1,100,29.86,1.5,NW,3.5,-,0.02,Snow,Light Snow,320,2012-12-29 05:55:00